Weather History for Robstown, TX

Change the Weather History Date:

Wednesday, June 19, 2013

  Actual Average (KCRP) Record (KCRP)
Temperature  
Mean Temperature 88 °F 83 °F  
Max Temperature 98 °F 91 °F 98 °F (2013)
Min Temperature 77 °F 74 °F 66 °F (1912)
Degree Days  
Heating Degree Days 0 0  
Month to date heating degree days 0  
Since 1 June heating degree days 0  
Since 1 July heating degree days 898  
Cooling Degree Days 22 18  
Month to date cooling degree days 322  
Year to date cooling degree days 1163  
Since 1 June cooling degree days 322  
Growing Degree Days 38 (Base 50)    
Moisture  
Dew Point 73 °F    
Average Humidity 66    
Maximum Humidity 90    
Minimum Humidity 37    
Precipitation  
Precipitation 0.00 in 0.12 in 3.15 in (1993)
Month to date precipitation 2.04  
Year to date precipitation 12.31  
Snow  
Snow 0.00 in - - ()
Month to date snowfall  
Since 1 June snowfall  
Since 1 July snowfall  
Snow Depth -    
Sea Level Pressure  
Sea Level Pressure 29.94 in    
Wind  
Wind Speed 11 mph (SSE)    
Max Wind Speed 24 mph    
Max Gust Speed 30 mph    
Visibility 10 miles    
Events      
T = Trace of Precipitation, MM = Missing Value Source: NWS Daily Summary

Daily Weather History Graph

Daily Weather History Graph

Search for Another Location

Airport:

Trip Planner

Search our weather history database for the weather conditions in past years. The results will help you decide how hot, cold, wet, or windy it might be!

Date:

Astronomy

Jun. 19, 2013 Rise Set
Actual Time 6:35 AM CDT 8:29 PM CDT
Civil Twilight 6:08 AM CDT 8:55 PM CDT
Nautical Twilight 5:36 AM CDT 9:28 PM CDT
Astronomical Twilight 5:02 AM CDT 10:02 PM CDT
Moon 4:36 PM CDT (6/19) 3:04 AM CDT (6/19)
Length of Visible Light 14h 47m
Length of Day
13h 54m
Waxing Gibbous, 80% of the Moon is Illuminated
Jun 19
Waxing Gibbous
Jun 23
Full
Jun 29
Last Quarter
Jul 8
New
Jul 15
First Quarter

Hourly Weather History & Observations

Time (CDT) Temp. Heat Index Dew Point Humidity Pressure Visibility Wind Dir Wind Speed Gust Speed Precip Events Conditions
12:15 AM 81.9 °F 89.2 °F 76.1 °F 83% 29.93 in 10.0 mi SSE 13.8 mph - N/A   Clear
12:35 AM 81.7 °F 88.7 °F 76.1 °F 83% 29.93 in 10.0 mi SSE 11.5 mph 19.6 mph N/A   Clear
12:55 AM 81.5 °F 88.3 °F 75.7 °F 83% 29.93 in 10.0 mi SSE 11.5 mph - N/A   Clear
1:15 AM 81.1 °F 87.4 °F 75.4 °F 83% 29.93 in 10.0 mi SSE 10.4 mph 17.3 mph N/A   Clear
1:35 AM 81.0 °F 86.9 °F 75.2 °F 83% 29.93 in 10.0 mi South 9.2 mph - N/A   Scattered Clouds
1:55 AM 80.8 °F 86.5 °F 75.2 °F 83% 29.92 in 10.0 mi South 12.7 mph - N/A   Scattered Clouds
2:15 AM 80.6 °F 86.2 °F 75.2 °F 84% 29.92 in 10.0 mi South 9.2 mph - N/A   Scattered Clouds
2:35 AM 80.1 °F 84.9 °F 74.8 °F 84% 29.92 in 10.0 mi South 8.1 mph - N/A   Clear
2:55 AM 79.7 °F - 74.7 °F 84% 29.92 in 10.0 mi South 5.8 mph - N/A   Scattered Clouds
3:15 AM 78.8 °F - 74.3 °F 86% 29.92 in 10.0 mi South 4.6 mph - N/A   Mostly Cloudy
3:35 AM 78.8 °F - 74.3 °F 86% 29.92 in 10.0 mi South 6.9 mph - N/A   Mostly Cloudy
3:55 AM 79.3 °F - 74.7 °F 86% 29.92 in 10.0 mi South 8.1 mph - N/A   Mostly Cloudy
4:15 AM 79.9 °F - 75.2 °F 86% 29.92 in 10.0 mi South 5.8 mph - N/A   Mostly Cloudy
4:35 AM 80.1 °F 85.1 °F 75.0 °F 85% 29.92 in 10.0 mi South 5.8 mph - N/A   Mostly Cloudy
4:55 AM 79.7 °F - 74.8 °F 85% 29.92 in 10.0 mi South 5.8 mph - N/A   Mostly Cloudy
5:15 AM 79.7 °F - 74.8 °F 85% 29.92 in 10.0 mi SSW 3.5 mph - N/A   Mostly Cloudy
5:35 AM 78.4 °F - 74.3 °F 87% 29.92 in 10.0 mi South 3.5 mph - N/A   Scattered Clouds
5:55 AM 77.4 °F - 73.8 °F 89% 29.92 in 10.0 mi SSE 4.6 mph - N/A   Clear
6:15 AM 77.2 °F - 73.9 °F 90% 29.93 in 10.0 mi SSE 3.5 mph - N/A   Clear
6:35 AM 77.4 °F - 74.3 °F 90% 29.93 in 10.0 mi SSE 4.6 mph - N/A   Clear
6:55 AM 77.9 °F - 74.3 °F 89% 29.94 in 10.0 mi SSE 5.8 mph - N/A   Clear
7:15 AM 78.8 °F - 74.5 °F 87% 29.94 in 10.0 mi SSE 6.9 mph - N/A   Clear
7:35 AM 80.1 °F 85.1 °F 75.0 °F 85% 29.94 in 10.0 mi SSE 6.9 mph - N/A   Clear
7:55 AM 81.5 °F 87.8 °F 75.2 °F 81% 29.95 in 10.0 mi South 9.2 mph - N/A   Clear
8:15 AM 82.6 °F 89.7 °F 75.2 °F 78% 29.95 in 10.0 mi SSE 9.2 mph - N/A   Clear
8:35 AM 83.8 °F 91.8 °F 75.2 °F 75% 29.96 in 10.0 mi South 11.5 mph - N/A   Clear
8:55 AM 85.5 °F 93.0 °F 73.9 °F 68% 29.96 in 10.0 mi South 12.7 mph - N/A   Scattered Clouds
9:15 AM 86.2 °F 93.8 °F 73.8 °F 66% 29.96 in 10.0 mi South 12.7 mph - N/A   Scattered Clouds
9:35 AM 87.6 °F 94.8 °F 72.7 °F 61% 29.96 in 10.0 mi South 15.0 mph - N/A   Scattered Clouds
9:55 AM 87.8 °F 93.8 °F 71.6 °F 58% 29.97 in 10.0 mi South 15.0 mph - N/A   Scattered Clouds
10:15 AM 89.1 °F 95.5 °F 71.6 °F 56% 29.97 in 10.0 mi South 13.8 mph - N/A   Scattered Clouds
10:35 AM 90.5 °F 97.5 °F 71.8 °F 54% 29.97 in 10.0 mi South 12.7 mph - N/A   Scattered Clouds
10:55 AM 91.4 °F 98.4 °F 71.6 °F 52% 29.97 in 10.0 mi South 13.8 mph - N/A   Scattered Clouds
11:15 AM 91.8 °F 97.5 °F 70.3 °F 49% 29.97 in 10.0 mi South 15.0 mph 19.6 mph N/A   Scattered Clouds
11:35 AM 91.9 °F 97.9 °F 70.5 °F 49% 29.96 in 10.0 mi South 12.7 mph 18.4 mph N/A   Scattered Clouds
11:55 AM 93.2 °F 98.8 °F 69.8 °F 46% 29.96 in 10.0 mi South 12.7 mph 21.9 mph N/A   Mostly Cloudy
12:15 PM 93.7 °F 99.9 °F 69.8 °F 46% 29.95 in 10.0 mi South 10.4 mph 21.9 mph N/A   Scattered Clouds
12:35 PM 95.2 °F 101.0 °F 69.6 °F 43% 29.94 in 10.0 mi SSE 11.5 mph 20.7 mph N/A   Mostly Cloudy
12:55 PM 95.0 °F 101.3 °F 69.8 °F 44% 29.94 in 10.0 mi SSE 10.4 mph 17.3 mph N/A   Scattered Clouds
1:15 PM 95.2 °F 101.0 °F 69.3 °F 43% 29.93 in 10.0 mi SE 10.4 mph 17.3 mph N/A   Scattered Clouds
1:35 PM 96.4 °F 103.0 °F 69.6 °F 42% 29.93 in 10.0 mi South 12.7 mph 19.6 mph N/A   Scattered Clouds
1:55 PM 96.3 °F 102.6 °F 70.0 °F 42% 29.92 in 10.0 mi SE 15.0 mph 21.9 mph N/A   Scattered Clouds
2:15 PM 97.3 °F 102.9 °F 68.7 °F 39% 29.92 in 10.0 mi SE 15.0 mph 19.6 mph N/A   Scattered Clouds
2:35 PM 98.1 °F 103.0 °F 67.8 °F 37% 29.91 in 10.0 mi Calm Calm - N/A   Scattered Clouds
2:55 PM 97.7 °F 103.6 °F 68.7 °F 39% 29.91 in 10.0 mi SSE 20.7 mph 25.3 mph N/A   Scattered Clouds
3:15 PM 97.0 °F 102.2 °F 68.2 °F 39% 29.91 in 10.0 mi SSE 18.4 mph 27.6 mph N/A   Scattered Clouds
3:35 PM 96.6 °F 102.1 °F 68.4 °F 40% 29.90 in 10.0 mi ESE 17.3 mph 27.6 mph N/A   Scattered Clouds
3:55 PM 97.0 °F 102.2 °F 68.0 °F 39% 29.90 in 10.0 mi SE 19.6 mph 25.3 mph N/A   Clear
4:15 PM 96.4 °F 101.7 °F 68.5 °F 40% 29.91 in 10.0 mi ESE 18.4 mph 25.3 mph N/A   Clear
4:35 PM 95.5 °F 100.6 °F 68.5 °F 41% 29.91 in 10.0 mi SE 19.6 mph 25.3 mph N/A   Clear
4:55 PM 94.8 °F 100.3 °F 68.9 °F 43% 29.90 in 10.0 mi SE 20.7 mph 27.6 mph N/A   Clear
5:15 PM 94.5 °F 99.6 °F 68.9 °F 43% 29.90 in 10.0 mi SE 21.9 mph 27.6 mph N/A   Clear
5:35 PM 93.7 °F 98.8 °F 69.1 °F 44% 29.90 in 10.0 mi SE 23.0 mph 29.9 mph N/A   Clear
5:55 PM 92.8 °F 98.1 °F 69.1 °F 46% 29.90 in 10.0 mi SE 21.9 mph - N/A   Clear
6:15 PM 91.6 °F 97.2 °F 69.8 °F 49% 29.90 in 10.0 mi ESE 24.2 mph 29.9 mph N/A   Clear
6:35 PM 91.0 °F 98.2 °F 71.6 °F 53% 29.91 in 10.0 mi ESE 20.7 mph 25.3 mph N/A   Clear
6:55 PM 90.3 °F 96.7 °F 71.2 °F 53% 29.91 in 10.0 mi SE 20.7 mph 26.5 mph N/A   Clear
7:15 PM 89.4 °F 95.8 °F 71.2 °F 55% 29.92 in 10.0 mi SE 20.7 mph 24.2 mph N/A   Clear
7:35 PM 88.0 °F 95.1 °F 72.5 °F 60% 29.93 in 10.0 mi SE 17.3 mph 25.3 mph N/A   Clear
7:55 PM 87.3 °F 92.8 °F 71.1 °F 58% 29.93 in 10.0 mi SE 20.7 mph 25.3 mph N/A   Clear
8:15 PM 86.2 °F 92.2 °F 71.8 °F 62% 29.94 in 10.0 mi SE 16.1 mph 24.2 mph N/A   Clear
8:35 PM 85.5 °F 91.1 °F 71.6 °F 63% 29.95 in 10.0 mi SE 15.0 mph - N/A   Clear
8:55 PM 84.7 °F 91.0 °F 72.5 °F 67% 29.95 in 10.0 mi SE 17.3 mph 21.9 mph N/A   Clear
9:15 PM 84.2 °F 90.9 °F 73.4 °F 70% 29.96 in 10.0 mi SE 16.1 mph - N/A   Clear
9:35 PM 83.7 °F 90.7 °F 74.3 °F 73% 29.97 in 10.0 mi SE 12.7 mph 19.6 mph N/A   Clear
9:55 PM 83.3 °F 90.5 °F 74.5 °F 75% 29.97 in 10.0 mi SE 12.7 mph 16.1 mph N/A   Clear
10:15 PM 82.9 °F 89.9 °F 74.7 °F 76% 29.97 in 10.0 mi SE 11.5 mph - N/A   Clear
10:35 PM 82.6 °F 89.4 °F 74.8 °F 77% 29.98 in 10.0 mi SE 5.8 mph - N/A   Clear
10:55 PM 82.4 °F 89.2 °F 75.0 °F 78% 29.99 in 10.0 mi SE 6.9 mph - N/A   Clear
11:15 PM 82.0 °F 88.6 °F 74.8 °F 79% 29.99 in 10.0 mi SSE 3.5 mph - N/A   Clear
11:35 PM 81.7 °F 88.0 °F 75.0 °F 80% 30.00 in 10.0 mi Calm Calm - N/A   Clear
11:55 PM 81.5 °F 87.6 °F 74.8 °F 80% 30.01 in 10.0 mi Calm Calm - N/A   Clear